TKY1905 BIAR-ENSB

Flight info

Callsign TKY1905
Flight time 2h 16m
Altitude 39000
Route UTISU2A UTISU DCT 70N012W 75N000E/N0460F390 DCT INPAR
Aircraft A319/M-SDE3FGHIRWY/LB1

Departure

Time 2026-05-09 17:26
Airport Akureyri International Airport (BIAR)

Arrival

Time 2026-05-09 19:43
Airport Svalbard Airport, Longyear (ENSB)
Time Latitude Longitude Altitude Speed Heading
2026-05-09 16:46 65.65263 -18.07503 21 ft 0 kts 53°
2026-05-09 17:20 65.65270 -18.07484 21 ft 4 kts 48°
2026-05-09 17:20 65.65318 -18.07478 24 ft 11 kts 352°
2026-05-09 17:21 65.65381 -18.07463 22 ft 11 kts 45°
2026-05-09 17:21 65.65445 -18.07426 22 ft 11 kts 356°
2026-05-09 17:21 65.65476 -18.07359 21 ft 4 kts 90°
2026-05-09 17:21 65.65476 -18.07358 21 ft 0 kts 90°
2026-05-09 17:22 65.65476 -18.07327 23 ft 5 kts 90°
2026-05-09 17:23 65.65465 -18.07202 21 ft 10 kts 126°
2026-05-09 17:23 65.65380 -18.07168 21 ft 16 kts 182°
2026-05-09 17:23 65.65251 -18.07137 22 ft 22 kts 171°
2026-05-09 17:23 65.65083 -18.07088 22 ft 27 kts 178°
2026-05-09 17:25 65.64510 -18.06990 23 ft 4 kts 15°
2026-05-09 17:25 65.64544 -18.06993 22 ft 6 kts 354°
2026-05-09 17:25 65.64600 -18.07005 22 ft 16 kts 355°
2026-05-09 17:25 65.65020 -18.07085 22 ft 101 kts 355°
2026-05-09 17:26 65.65941 -18.07255 178 ft 149 kts 355°
2026-05-09 17:26 65.66960 -18.07449 966 ft 146 kts 354°
2026-05-09 17:26 65.67989 -18.07741 1607 ft 157 kts 353°
2026-05-09 17:26 65.69154 -18.08084 2166 ft 181 kts 353°
2026-05-09 17:27 65.70493 -18.08473 2771 ft 206 kts 353°
2026-05-09 17:27 65.72025 -18.08911 3440 ft 231 kts 353°
2026-05-09 17:27 65.73689 -18.09383 4276 ft 248 kts 352°
2026-05-09 17:27 65.75426 -18.09867 5390 ft 254 kts 352°
2026-05-09 17:28 65.77188 -18.10352 6558 ft 257 kts 351°
2026-05-09 17:28 65.78976 -18.10837 7675 ft 259 kts 351°
2026-05-09 17:28 65.80781 -18.11321 8791 ft 262 kts 351°
2026-05-09 17:28 65.82614 -18.11451 9859 ft 270 kts
2026-05-09 17:29 65.84357 -18.09580 10824 ft 283 kts 35°
2026-05-09 17:29 65.85572 -18.05648 11583 ft 307 kts 63°
2026-05-09 17:29 65.86091 -18.00252 11987 ft 337 kts 78°
2026-05-09 17:29 65.86358 -17.94378 12543 ft 355 kts 82°
2026-05-09 17:30 65.86521 -17.88304 13364 ft 362 kts 84°
2026-05-09 17:30 65.86657 -17.82103 14218 ft 368 kts 83°
2026-05-09 17:30 65.86807 -17.75826 14987 ft 373 kts 83°
2026-05-09 17:30 65.86984 -17.69447 15751 ft 378 kts 82°
2026-05-09 17:31 65.87186 -17.63029 16507 ft 383 kts 81°
2026-05-09 17:31 65.87409 -17.56493 17266 ft 387 kts 81°
2026-05-09 17:32 65.91414 -17.32826 20042 ft 378 kts 37°
2026-05-09 17:32 65.93488 -17.28838 20755 ft 372 kts 25°
2026-05-09 17:32 65.95752 -17.26062 21466 ft 368 kts 17°
2026-05-09 17:33 65.98135 -17.23536 22180 ft 369 kts 17°
2026-05-09 17:33 66.00497 -17.21021 22853 ft 371 kts 17°
2026-05-09 17:33 66.02875 -17.18466 23508 ft 374 kts 17°
2026-05-09 17:33 66.05260 -17.15890 24103 ft 376 kts 17°
2026-05-09 17:34 66.07664 -17.13288 24612 ft 379 kts 17°
2026-05-09 17:35 66.22407 -16.97202 27541 ft 394 kts 16°
2026-05-09 17:35 66.24924 -16.94446 28002 ft 396 kts 16°
2026-05-09 17:36 66.27452 -16.91672 28447 ft 399 kts 16°
2026-05-09 17:36 66.29997 -16.88869 28881 ft 401 kts 16°
2026-05-09 17:36 66.32553 -16.86046 29303 ft 403 kts 16°
2026-05-09 17:36 66.35122 -16.83201 29719 ft 406 kts 16°
2026-05-09 17:37 66.37710 -16.80322 30127 ft 408 kts 16°
2026-05-09 17:37 66.40309 -16.77426 30492 ft 410 kts 16°
2026-05-09 17:37 66.42921 -16.74508 30794 ft 413 kts 16°
2026-05-09 17:37 66.45550 -16.71571 31116 ft 415 kts 16°
2026-05-09 17:38 66.48181 -16.68621 31518 ft 415 kts 16°
2026-05-09 17:38 66.50817 -16.65654 31897 ft 415 kts 16°
2026-05-09 17:38 66.53448 -16.62684 32278 ft 415 kts 16°
2026-05-09 17:39 66.58762 -16.56671 33059 ft 417 kts 16°
2026-05-09 17:39 66.61408 -16.53663 33430 ft 417 kts 16°
2026-05-09 17:39 66.64020 -16.50690 33809 ft 418 kts 16°
2026-05-09 17:39 66.66703 -16.47631 34199 ft 418 kts 16°
2026-05-09 17:40 66.69359 -16.44598 34530 ft 419 kts 17°
2026-05-09 17:40 66.72020 -16.41559 34822 ft 420 kts 17°
2026-05-09 17:40 66.74687 -16.38511 35119 ft 421 kts 17°
2026-05-09 17:40 66.76458 -16.36487 35307 ft 422 kts 17°
2026-05-09 17:41 66.80041 -16.32373 35671 ft 424 kts 17°
2026-05-09 17:41 66.81821 -16.30318 35831 ft 425 kts 17°
2026-05-09 17:41 66.84517 -16.27198 36102 ft 426 kts 18°
2026-05-09 17:41 66.87216 -16.24064 36358 ft 427 kts 18°
2026-05-09 17:42 66.89919 -16.20915 36613 ft 428 kts 18°
2026-05-09 17:42 66.92635 -16.17742 36855 ft 429 kts 18°
2026-05-09 17:42 66.95350 -16.14569 37111 ft 430 kts 18°
2026-05-09 17:42 66.98071 -16.11385 37358 ft 431 kts 18°
2026-05-09 17:43 67.00800 -16.08182 37600 ft 432 kts 19°
2026-05-09 17:43 67.03532 -16.04967 37820 ft 432 kts 19°
2026-05-09 17:43 67.06305 -16.01698 38063 ft 433 kts 19°
2026-05-09 17:43 67.09044 -15.98469 38286 ft 434 kts 19°
2026-05-09 17:44 67.11785 -15.95225 38503 ft 435 kts 19°
2026-05-09 17:44 67.14533 -15.91958 38702 ft 435 kts 19°
2026-05-09 17:44 67.17283 -15.88666 38905 ft 436 kts 19°
2026-05-09 17:44 67.20028 -15.85368 39059 ft 436 kts 20°
2026-05-09 17:45 67.22780 -15.82061 39213 ft 437 kts 20°
2026-05-09 17:45 67.28303 -15.75412 39283 ft 438 kts 20°
2026-05-09 17:46 67.33820 -15.68746 39280 ft 438 kts 20°
2026-05-09 17:46 67.39344 -15.62028 39280 ft 438 kts 20°
2026-05-09 17:47 67.44863 -15.55303 39276 ft 438 kts 20°
2026-05-09 17:47 67.50423 -15.48479 39269 ft 438 kts 20°
2026-05-09 17:48 67.55945 -15.41658 39270 ft 439 kts 20°
2026-05-09 17:48 67.61463 -15.34817 39268 ft 439 kts 20°
2026-05-09 17:49 67.66991 -15.27923 39272 ft 440 kts 20°
2026-05-09 17:49 67.72520 -15.20998 39266 ft 440 kts 20°
2026-05-09 17:50 67.78047 -15.14017 39270 ft 441 kts 20°
2026-05-09 17:50 67.86345 -15.03487 39265 ft 441 kts 20°
2026-05-09 17:51 67.91884 -14.96424 39258 ft 442 kts 20°
2026-05-09 17:51 67.97421 -14.89313 39259 ft 442 kts 20°
2026-05-09 17:52 68.02954 -14.82163 39254 ft 442 kts 21°
2026-05-09 17:52 68.08520 -14.74933 39254 ft 442 kts 21°
2026-05-09 17:53 68.14057 -14.67707 39253 ft 443 kts 21°
2026-05-09 17:53 68.19594 -14.60459 39253 ft 443 kts 21°
2026-05-09 17:54 68.25135 -14.53156 39252 ft 443 kts 21°
2026-05-09 17:54 68.30674 -14.45810 39254 ft 443 kts 21°
2026-05-09 17:55 68.36210 -14.38426 39248 ft 444 kts 21°
2026-05-09 17:55 68.41744 -14.30998 39252 ft 444 kts 21°
2026-05-09 17:56 68.47283 -14.23533 39255 ft 444 kts 21°
2026-05-09 17:57 68.55593 -14.12266 39255 ft 445 kts 21°
2026-05-09 17:57 68.61179 -14.04639 39258 ft 446 kts 21°
2026-05-09 17:58 68.66723 -13.97004 39260 ft 446 kts 22°
2026-05-09 17:58 68.72271 -13.89314 39260 ft 446 kts 22°
2026-05-09 17:59 68.77813 -13.81612 39263 ft 446 kts 22°
2026-05-09 17:59 68.83351 -13.73891 39260 ft 446 kts 22°
2026-05-09 18:00 68.88884 -13.66105 39259 ft 446 kts 22°
2026-05-09 18:00 68.94414 -13.58282 39259 ft 446 kts 22°
2026-05-09 18:01 68.99941 -13.50447 39260 ft 446 kts 22°
2026-05-09 18:01 69.05464 -13.42551 39254 ft 446 kts 22°
2026-05-09 18:02 69.10973 -13.34615 39254 ft 446 kts 22°
2026-05-09 18:02 69.16486 -13.26636 39251 ft 446 kts 22°
2026-05-09 18:03 69.21996 -13.18646 39250 ft 446 kts 22°
2026-05-09 18:03 69.27506 -13.10604 39247 ft 446 kts 22°
2026-05-09 18:04 69.33011 -13.02505 39248 ft 447 kts 22°
2026-05-09 18:04 69.38521 -12.94332 39242 ft 447 kts 22°
2026-05-09 18:05 69.44027 -12.86129 39245 ft 447 kts 23°
2026-05-09 18:05 69.49573 -12.77828 39251 ft 448 kts 23°
2026-05-09 18:06 69.55093 -12.69517 39245 ft 448 kts 23°
2026-05-09 18:06 69.60605 -12.61152 39245 ft 449 kts 23°
2026-05-09 18:07 69.66126 -12.52751 39241 ft 449 kts 23°
2026-05-09 18:07 69.71653 -12.44317 39238 ft 450 kts 24°
2026-05-09 18:08 69.77172 -12.35817 39237 ft 450 kts 24°
2026-05-09 18:08 69.82690 -12.27249 39235 ft 450 kts 24°
2026-05-09 18:09 69.88206 -12.18623 39228 ft 451 kts 24°
2026-05-09 18:09 69.93728 -12.09933 39220 ft 451 kts 24°
2026-05-09 18:10 69.99247 -12.01188 39226 ft 452 kts 25°
2026-05-09 18:10 70.04761 -11.92074 39224 ft 453 kts 26°
2026-05-09 18:11 70.10195 -11.82712 39219 ft 454 kts 27°
2026-05-09 18:11 70.14710 -11.74837 39214 ft 454 kts 27°
2026-05-09 18:12 70.20149 -11.65362 39219 ft 454 kts 27°
2026-05-09 18:12 70.25592 -11.55864 39210 ft 454 kts 27°
2026-05-09 18:13 70.31035 -11.46333 39203 ft 454 kts 27°
2026-05-09 18:13 70.36466 -11.36728 39201 ft 455 kts 27°
2026-05-09 18:14 70.41894 -11.27036 39197 ft 455 kts 27°
2026-05-09 18:14 70.47320 -11.17300 39195 ft 455 kts 27°
2026-05-09 18:15 70.52755 -11.07545 39189 ft 455 kts 27°
2026-05-09 18:15 70.58215 -10.97647 39189 ft 456 kts 27°
2026-05-09 18:16 70.63636 -10.87744 39183 ft 456 kts 28°
2026-05-09 18:16 70.69049 -10.77792 39181 ft 456 kts 28°
2026-05-09 18:17 70.74461 -10.67777 39175 ft 456 kts 28°
2026-05-09 18:17 70.79866 -10.57735 39167 ft 456 kts 28°
2026-05-09 18:18 70.85269 -10.47641 39164 ft 456 kts 28°
2026-05-09 18:18 70.90669 -10.37479 39157 ft 456 kts 28°
2026-05-09 18:19 70.96055 -10.27251 39151 ft 456 kts 28°
2026-05-09 18:19 71.04122 -10.11811 39140 ft 456 kts 28°
2026-05-09 18:20 71.09498 -10.01457 39135 ft 455 kts 28°
2026-05-09 18:20 71.14862 -9.91067 39127 ft 455 kts 28°
2026-05-09 18:21 71.20216 -9.80587 39120 ft 455 kts 29°
2026-05-09 18:21 71.25571 -9.70068 39114 ft 455 kts 29°
2026-05-09 18:22 71.30917 -9.59508 39105 ft 455 kts 30°
2026-05-09 18:22 71.36292 -9.48793 39103 ft 456 kts 29°
2026-05-09 18:23 71.41633 -9.38078 39095 ft 456 kts 30°
2026-05-09 18:23 71.46968 -9.27306 39091 ft 456 kts 30°
2026-05-09 18:24 71.52307 -9.16467 39085 ft 457 kts 30°
2026-05-09 18:25 71.60309 -9.00061 39077 ft 457 kts 30°
2026-05-09 18:25 71.65634 -8.89050 39069 ft 457 kts 30°
2026-05-09 18:26 71.70957 -8.77958 39064 ft 457 kts 30°
2026-05-09 18:26 71.76282 -8.66811 39055 ft 458 kts 31°
2026-05-09 18:27 71.81601 -8.55602 39057 ft 458 kts 31°
2026-05-09 18:27 71.86919 -8.44296 39052 ft 459 kts 31°
2026-05-09 18:28 71.92239 -8.32925 39046 ft 459 kts 31°
2026-05-09 18:28 71.97553 -8.21485 39041 ft 460 kts 32°
2026-05-09 18:29 72.02903 -8.09886 39037 ft 460 kts 32°
2026-05-09 18:29 72.08207 -7.98282 39036 ft 460 kts 32°
2026-05-09 18:30 72.13507 -7.86617 39030 ft 460 kts 32°
2026-05-09 18:30 72.18815 -7.74881 39027 ft 461 kts 32°
2026-05-09 18:31 72.24112 -7.63059 39027 ft 461 kts 32°
2026-05-09 18:31 72.29402 -7.51161 39019 ft 461 kts 33°
2026-05-09 18:32 72.34692 -7.39183 39017 ft 462 kts 33°
2026-05-09 18:32 72.39976 -7.27160 39017 ft 462 kts 33°
2026-05-09 18:33 72.45294 -7.14957 39017 ft 462 kts 33°
2026-05-09 18:33 72.50572 -7.02738 39019 ft 463 kts 33°
2026-05-09 18:34 72.55845 -6.90445 39021 ft 463 kts 33°
2026-05-09 18:34 72.61118 -6.78045 39021 ft 463 kts 34°
2026-05-09 18:35 72.66390 -6.65605 39023 ft 463 kts 34°
2026-05-09 18:35 72.71650 -6.53101 39021 ft 463 kts 34°
2026-05-09 18:36 72.76896 -6.40501 39022 ft 463 kts 34°
2026-05-09 18:36 72.82135 -6.27828 39027 ft 463 kts 34°
2026-05-09 18:37 72.87367 -6.15086 39030 ft 463 kts 34°
2026-05-09 18:37 72.92596 -6.02249 39028 ft 464 kts 35°
2026-05-09 18:38 72.97818 -5.89332 39036 ft 464 kts 35°
2026-05-09 18:38 73.03035 -5.76367 39038 ft 464 kts 35°
2026-05-09 18:40 73.23850 -5.23537 39047 ft 464 kts 36°
2026-05-09 18:41 73.29020 -5.10148 39046 ft 464 kts 36°
2026-05-09 18:41 73.34183 -4.96694 39050 ft 464 kts 36°
2026-05-09 18:42 73.39342 -4.83176 39044 ft 464 kts 36°
2026-05-09 18:42 73.44493 -4.69533 39052 ft 464 kts 36°
2026-05-09 18:43 73.49628 -4.55813 39057 ft 464 kts 36°
2026-05-09 18:43 73.53892 -4.44353 39056 ft 464 kts 36°
2026-05-09 18:44 73.59009 -4.30488 39061 ft 464 kts 36°
2026-05-09 18:44 73.64124 -4.16544 39061 ft 464 kts 36°
2026-05-09 18:45 73.69227 -4.02515 39069 ft 464 kts 37°
2026-05-09 18:45 73.74349 -3.88289 39070 ft 464 kts 37°
2026-05-09 18:46 73.79426 -3.74097 39064 ft 463 kts 37°
2026-05-09 18:46 73.84502 -3.59850 39069 ft 464 kts 37°
2026-05-09 18:47 73.89569 -3.45492 39079 ft 464 kts 37°
2026-05-09 18:47 73.94628 -3.31033 39076 ft 464 kts 37°
2026-05-09 18:48 73.99710 -3.16361 39084 ft 465 kts 37°
2026-05-09 18:48 74.04751 -3.01665 39089 ft 465 kts 37°
2026-05-09 18:49 74.09785 -2.86891 39088 ft 465 kts 37°
2026-05-09 18:49 74.14811 -2.72048 39092 ft 464 kts 38°
2026-05-09 18:50 74.19825 -2.57113 39096 ft 464 kts 38°
2026-05-09 18:50 74.24832 -2.42082 39095 ft 465 kts 38°
2026-05-09 18:51 74.29818 -2.26958 39101 ft 465 kts 38°
2026-05-09 18:51 74.34808 -2.11714 39106 ft 465 kts 39°
2026-05-09 18:52 74.39781 -1.96380 39110 ft 465 kts 38°
2026-05-09 18:52 74.44748 -1.80973 39113 ft 465 kts 39°
2026-05-09 18:53 74.49705 -1.65458 39115 ft 465 kts 39°
2026-05-09 18:53 74.54652 -1.49853 39123 ft 465 kts 39°
2026-05-09 18:54 74.59589 -1.34110 39129 ft 466 kts 39°
2026-05-09 18:54 74.64513 -1.18229 39130 ft 466 kts 39°
2026-05-09 18:55 74.69468 -1.02195 39139 ft 466 kts 39°
2026-05-09 18:55 74.74385 -0.86152 39144 ft 466 kts 40°
2026-05-09 18:56 74.79281 -0.69990 39154 ft 466 kts 40°
2026-05-09 18:56 74.84167 -0.53733 39151 ft 466 kts 40°
2026-05-09 18:57 74.89043 -0.37370 39160 ft 466 kts 40°
2026-05-09 18:57 74.93908 -0.20908 39163 ft 466 kts 41°
2026-05-09 18:58 74.98758 -0.04311 39167 ft 466 kts 41°
2026-05-09 18:58 75.03674 0.12013 39172 ft 466 kts 39°
2026-05-09 18:59 75.08667 0.28010 39176 ft 466 kts 39°
2026-05-09 18:59 75.13670 0.44048 39183 ft 466 kts 39°
2026-05-09 19:00 75.18651 0.60272 39189 ft 466 kts 39°
2026-05-09 19:00 75.26084 0.84909 39195 ft 467 kts 40°
2026-05-09 19:01 75.31020 1.01509 39202 ft 467 kts 40°
2026-05-09 19:01 75.35988 1.18309 39207 ft 467 kts 40°
2026-05-09 19:02 75.40919 1.35102 39216 ft 467 kts 40°
2026-05-09 19:02 75.45834 1.52035 39217 ft 467 kts 40°
2026-05-09 19:03 75.50735 1.69050 39226 ft 468 kts 40°
2026-05-09 19:03 75.55627 1.86198 39230 ft 468 kts 40°
2026-05-09 19:04 75.60512 2.03462 39231 ft 468 kts 41°
2026-05-09 19:04 75.65380 2.20847 39234 ft 468 kts 41°
2026-05-09 19:05 75.70236 2.38365 39247 ft 468 kts 41°
2026-05-09 19:05 75.75076 2.55964 39253 ft 467 kts 41°
2026-05-09 19:06 75.79907 2.73691 39251 ft 467 kts 41°
2026-05-09 19:06 75.84714 2.91508 39252 ft 467 kts 42°
2026-05-09 19:07 75.89504 3.09477 39255 ft 467 kts 42°
2026-05-09 19:07 75.94283 3.27547 39261 ft 467 kts 42°
2026-05-09 19:08 75.99055 3.45729 39262 ft 467 kts 42°
2026-05-09 19:08 76.03844 3.64131 39268 ft 467 kts 43°
2026-05-09 19:09 76.08587 3.82541 39268 ft 467 kts 43°
2026-05-09 19:09 76.13317 4.01126 39273 ft 467 kts 43°
2026-05-09 19:10 76.18031 4.19801 39277 ft 467 kts 43°
2026-05-09 19:10 76.22725 4.38657 39279 ft 467 kts 43°
2026-05-09 19:11 76.27405 4.57587 39278 ft 467 kts 43°
2026-05-09 19:11 76.32085 4.76639 39283 ft 467 kts 43°
2026-05-09 19:12 76.36744 4.95836 39286 ft 468 kts 44°
2026-05-09 19:12 76.41391 5.15171 39291 ft 468 kts 44°
2026-05-09 19:13 76.46021 5.34616 39295 ft 468 kts 44°
2026-05-09 19:13 76.50655 5.54300 39299 ft 468 kts 44°
2026-05-09 19:14 76.55263 5.74047 39303 ft 468 kts 44°
2026-05-09 19:14 76.59851 5.93923 39305 ft 468 kts 45°
2026-05-09 19:15 76.63680 6.10682 39306 ft 468 kts 45°
2026-05-09 19:15 76.68240 6.30790 39310 ft 468 kts 45°
2026-05-09 19:16 76.72783 6.51012 39308 ft 467 kts 45°
2026-05-09 19:16 76.77295 6.71383 39310 ft 467 kts 46°
2026-05-09 19:17 76.81794 6.91925 39310 ft 467 kts 46°
2026-05-09 19:17 76.86285 7.12545 39314 ft 467 kts 46°
2026-05-09 19:18 76.90768 7.33305 39316 ft 468 kts 46°
2026-05-09 19:18 76.95226 7.54219 39317 ft 468 kts 46°
2026-05-09 19:19 76.99665 7.75283 39317 ft 467 kts 46°
2026-05-09 19:19 77.04075 7.96480 39319 ft 467 kts 47°
2026-05-09 19:20 77.08473 8.17817 39319 ft 467 kts 47°
2026-05-09 19:20 77.12865 8.39257 39324 ft 467 kts 47°
2026-05-09 19:21 77.17230 8.60846 39322 ft 467 kts 47°
2026-05-09 19:21 77.21592 8.82746 39320 ft 467 kts 47°
2026-05-09 19:22 77.25912 9.04652 39059 ft 466 kts 48°
2026-05-09 19:22 77.28064 9.15615 38814 ft 465 kts 48°
2026-05-09 19:22 77.30212 9.26604 38449 ft 465 kts 48°
2026-05-09 19:23 77.32362 9.37677 37640 ft 467 kts 48°
2026-05-09 19:23 77.34511 9.48816 36857 ft 468 kts 49°
2026-05-09 19:23 77.36663 9.60017 35941 ft 472 kts 49°
2026-05-09 19:23 77.38839 9.71412 34947 ft 478 kts 49°
2026-05-09 19:24 77.41018 9.82886 34270 ft 476 kts 49°
2026-05-09 19:24 77.43187 9.94389 33245 ft 477 kts 49°
2026-05-09 19:24 77.45345 10.05918 31943 ft 475 kts 49°
2026-05-09 19:24 77.47498 10.17487 30345 ft 477 kts 49°
2026-05-09 19:25 77.49655 10.29143 28726 ft 478 kts 49°
2026-05-09 19:25 77.51786 10.40724 28089 ft 467 kts 49°
2026-05-09 19:25 77.53869 10.52091 27290 ft 459 kts 49°
2026-05-09 19:25 77.55921 10.63300 26525 ft 453 kts 49°
2026-05-09 19:26 77.57940 10.74397 25758 ft 447 kts 50°
2026-05-09 19:26 77.59930 10.85410 25015 ft 442 kts 50°
2026-05-09 19:26 77.61887 10.96328 24283 ft 437 kts 50°
2026-05-09 19:26 77.63824 11.07188 23492 ft 433 kts 50°
2026-05-09 19:27 77.65730 11.17921 22803 ft 426 kts 50°
2026-05-09 19:27 77.67603 11.28516 22162 ft 419 kts 50°
2026-05-09 19:27 77.69447 11.38994 21545 ft 413 kts 50°
2026-05-09 19:27 77.71251 11.49338 20960 ft 408 kts 50°
2026-05-09 19:28 77.73032 11.59609 20404 ft 403 kts 50°
2026-05-09 19:28 77.74793 11.69799 19862 ft 399 kts 50°
2026-05-09 19:28 77.76534 11.79905 19320 ft 395 kts 50°
2026-05-09 19:28 77.78255 11.89950 18793 ft 392 kts 50°
2026-05-09 19:29 77.79956 11.99960 18205 ft 389 kts 51°
2026-05-09 19:29 77.81632 12.09864 17660 ft 383 kts 51°
2026-05-09 19:29 77.83308 12.19793 17122 ft 378 kts 51°
2026-05-09 19:29 77.84942 12.29496 16562 ft 374 kts 51°
2026-05-09 19:30 77.86553 12.39114 16011 ft 370 kts 51°
2026-05-09 19:30 77.88141 12.48644 15444 ft 367 kts 51°
2026-05-09 19:30 77.89715 12.58128 14880 ft 363 kts 51°
2026-05-09 19:30 77.91271 12.67562 14309 ft 361 kts 51°
2026-05-09 19:31 77.92813 12.76957 13688 ft 358 kts 51°
2026-05-09 19:31 77.94337 12.86290 13111 ft 353 kts 51°
2026-05-09 19:31 77.95838 12.95514 12526 ft 349 kts 51°
2026-05-09 19:31 77.97318 13.04637 11952 ft 345 kts 51°
2026-05-09 19:32 77.98778 13.13684 11353 ft 341 kts 51°
2026-05-09 19:32 78.00215 13.22636 10969 ft 332 kts 51°
2026-05-09 19:32 78.01580 13.31246 10839 ft 316 kts 51°
2026-05-09 19:32 78.02883 13.39507 10707 ft 303 kts 51°
2026-05-09 19:33 78.04132 13.47429 10530 ft 292 kts 51°
2026-05-09 19:33 78.05373 13.55070 10255 ft 286 kts 46°
2026-05-09 19:33 78.06839 13.61463 10121 ft 283 kts 34°
2026-05-09 19:33 78.08548 13.66360 9996 ft 282 kts 27°
2026-05-09 19:34 78.10275 13.70935 9510 ft 286 kts 27°
2026-05-09 19:34 78.12003 13.75595 9135 ft 281 kts 28°
2026-05-09 19:34 78.13694 13.80196 8562 ft 278 kts 28°
2026-05-09 19:34 78.15371 13.84781 7908 ft 274 kts 28°
2026-05-09 19:35 78.17038 13.89362 7380 ft 276 kts 29°
2026-05-09 19:35 78.18699 13.93941 6928 ft 274 kts 29°
2026-05-09 19:35 78.20348 13.98474 6648 ft 266 kts 29°
2026-05-09 19:35 78.21918 14.02777 6493 ft 253 kts 29°
2026-05-09 19:36 78.23431 14.06945 6209 ft 246 kts 29°
2026-05-09 19:36 78.24871 14.11171 6061 ft 236 kts 32°
2026-05-09 19:36 78.26225 14.15596 5766 ft 232 kts 34°
2026-05-09 19:36 78.27547 14.20069 5439 ft 230 kts 34°
2026-05-09 19:37 78.28818 14.24770 5083 ft 228 kts 45°
2026-05-09 19:37 78.29720 14.31026 4849 ft 222 kts 65°
2026-05-09 19:37 78.30125 14.38216 4610 ft 216 kts 85°
2026-05-09 19:37 78.30025 14.45512 4334 ft 213 kts 104°
2026-05-09 19:38 78.29652 14.52510 4044 ft 211 kts 104°
2026-05-09 19:38 78.29295 14.59521 3744 ft 210 kts 104°
2026-05-09 19:38 78.28934 14.66479 3451 ft 210 kts 105°
2026-05-09 19:38 78.28569 14.73436 3153 ft 210 kts 105°
2026-05-09 19:39 78.28213 14.80183 2856 ft 197 kts 105°
2026-05-09 19:39 78.27878 14.86482 2568 ft 184 kts 105°
2026-05-09 19:39 78.27564 14.92373 2316 ft 171 kts 105°
2026-05-09 19:39 78.27273 14.97819 2076 ft 159 kts 105°
2026-05-09 19:40 78.26999 15.02919 1859 ft 150 kts 105°
2026-05-09 19:40 78.26744 15.07639 1649 ft 134 kts 105°
2026-05-09 19:40 78.26513 15.11911 1450 ft 126 kts 105°
2026-05-09 19:40 78.26290 15.16030 1243 ft 124 kts 105°
2026-05-09 19:41 78.26069 15.20082 1056 ft 122 kts 105°
2026-05-09 19:41 78.25850 15.24097 860 ft 122 kts 105°
2026-05-09 19:41 78.25630 15.28103 698 ft 121 kts 105°
2026-05-09 19:41 78.25412 15.32088 534 ft 121 kts 105°
2026-05-09 19:42 78.25192 15.36068 372 ft 121 kts 105°
2026-05-09 19:42 78.24974 15.40026 214 ft 120 kts 105°
2026-05-09 19:42 78.24756 15.43965 85 ft 114 kts 105°
2026-05-09 19:42 78.24570 15.47101 82 ft 74 kts 101°
2026-05-09 19:43 78.24497 15.48722 81 ft 24 kts 105°
2026-05-09 19:43 78.24484 15.48952 80 ft 3 kts 105°
2026-05-09 19:43 78.24477 15.49080 80 ft 5 kts 106°
2026-05-09 19:43 78.24476 15.49293 84 ft 9 kts 76°
2026-05-09 19:44 78.24489 15.49396 84 ft 4 kts 41°
2026-05-09 19:44 78.24513 15.49464 88 ft 25 kts 27°
2026-05-09 19:44 78.24600 15.49700 89 ft 6 kts 77°
2026-05-09 19:44 78.24595 15.49835 88 ft 0 kts 105°